User: anonymous   Login
Location: Nantong Television Tower
(32.0188°N, 120.8512°E)
Time: 10:56:43
(UTC+08:00)
Language:

Vanguard 3 - Orbit

View from above orbital plane
View from above orbital plane
View from above satellite
View from above satellite

Ground track
Ground track

The orbit data is extracted from the following two-line orbital elements,

1 00020U 59007A   14297.35632643  .00000676  00000-0  27814-3 0  6067
2 00020 033.3447 327.2047 1674843 129.5662 246.5278 11.54091786991989
Epoch (UTC): 24 October 2014 08:33:06
Eccentricity: 0.1674843
inclination: 33.3447°
perigee height: 508 km
apogee height: 3278 km
right ascension of ascending node: 327.2047°
argument of perigee: 129.5662°
revolutions per day: 11.54091786
mean anomaly at epoch: 246.5278°
orbit number at epoch: 99198

The dashed part of the orbit path shows where the satellite is in the earth's shadow,  

DLR